Regional Weather Roundup
Issued by NWS

Home | Current Version | Previous Version | Graphics & Text | Print | Product List | Glossary On
Versions: 1 2 3 4 5 6 7 8 9 10 11 12 13 14 15 16 17 18 19 20 21 22 23 24 25 26 27
000
ASUS45 KTFX 232310
RWRMT
MONTANA REGIONAL WEATHER ROUNDUP
NATIONAL WEATHER SERVICE GREAT FALLS MT
500 PM MDT SAT JUL 23 2016

NOTE: "FAIR" INDICATES FEW OR NO CLOUDS BELOW 12000 FEET WITH NO
SIGNIFICANT WEATHER AND/OR OBSTRUCTIONS TO VISIBILITY.

MTZ001>007-043-240000-
WEST OF THE DIVIDE

CITY           SKY/WX    TMP DP  RH WIND       PRES   REMARKS
KALISPELL      MOSUNNY   75  44  33 VRB7      30.08F
MISSOULA       MOSUNNY   80  39  23 NW7       30.11F
BUTTE          SUNNY     77  36  22 N10       30.16S
MULLAN PASS    PTSUNNY   59  41  51 VRB3      30.28S
ANACONDA         N/A     72  43  35 N9        30.15S
DEER LODGE       N/A     72  39  30 NW10G18   30.17F
EUREKA           N/A     73  48  40 N14       30.09R
HAMILTON         N/A     75  43  31 N6        30.12F
LIBBY            N/A     73  43  33 CALM      30.12S
PLAINS           N/A     81  43  26 W9        30.10S
RONAN            N/A     77  40  26 W6        30.14F
THOMPSON FALLS   N/A     78  44  29 NW9       30.14F
$$

MTZ008-052>055-240000-
SOUTHWEST MONTANA

CITY           SKY/WX    TMP DP  RH WIND       PRES   REMARKS
BOZEMAN        MOSUNNY   79  38  22 N10G17    30.09F
DILLON         CLOUDY    77  43  29 N6        30.09F
W YELLOWSTONE  SUNNY     73  32  21 S16G26    30.21F
ENNIS          SUNNY     81  27  13 N14G20    30.14F
$$

MTZ009-010-012-014-046-048-049-054-240000-
EAST SLOPES AND CENTRAL MONTANA

CITY           SKY/WX    TMP DP  RH WIND       PRES   REMARKS
CUT BANK       MOSUNNY   78  37  22 W15G24    30.05F
GREAT FALLS    MOSUNNY   81  39  22 SW13G22   30.04F
MALMSTROM AFB  MOSUNNY   78  40  25 S12G21    30.04F
HELENA         CLOUDY    83  38  20 W9        30.08R
CHOTEAU          N/A     79  37  22 W17       30.08S
CONRAD           N/A     80  42  25 W12       30.07F
$$

MTZ011-013-016-021-045-047-050-051-240000-
NORTH CENTRAL MONTANA

CITY           SKY/WX    TMP DP  RH WIND       PRES   REMARKS
HAVRE          MOSUNNY   79  47  32 NW14G21   29.98S
LEWISTOWN      SUNNY     77  46  33 NW9G20    30.09R
N BAR RANCH      N/A     72  45  37 NW12G20   30.11S
CHINOOK          N/A     79  48  34 W9        29.97S
$$

MTZ017>020-022>027-061-062-240000-
NORTHEAST MONTANA

CITY           SKY/WX    TMP DP  RH WIND       PRES   REMARKS
GLASGOW        MOSUNNY   80  49  33 NW25G33   29.92R
JORDAN           N/A     82  46  28 NW21      29.96S
SIDNEY         SUNNY     83  51  33 NW24G30   29.86R
WOLF POINT     MOSUNNY   80  50  34 NW20G29   29.90R
PLENTYWOOD       N/A     72  55  56 NW17G29   29.86R
POPLAR           N/A     79  52  38 NW21G30   29.89R
SCOBEY           N/A     75  56  51 NW13      29.91R
$$

MTZ028>42-056>058-240000-
SOUTHCENTRAL AND SOUTHEAST MONTANA

CITY           SKY/WX    TMP DP  RH WIND       PRES   REMARKS
BAKER          SUNNY     83  43  24 W25G33    29.95S
BILLINGS       MOSUNNY   86  34  15 N14G26    30.01F
LIVINGSTON     SUNNY     81  31  16 N17       30.06F
MILES CITY     MOSUNNY   86  41  20 NW23G30   29.95S
EKALAKA          N/A     82  37  20 W17       29.97F
FORSYTH          N/A     82  43  24 NW15G24   29.96S
LAUREL           N/A     87  37  17 N1        30.00F
ROUNDUP          N/A     81  44  26 N8        29.95S
$$

REGIONAL REPORTS...DAKOTAS

CITY           SKY/WX    TMP DP  RH WIND       PRES   REMARKS
WILLISTON      MOSUNNY   82  53  36 NW20G31   29.84R
MINOT          SUNNY     85  52  32 W21G28    29.76S
DICKINSON      SUNNY     80  46  30 NW20      29.87R
BEACH            N/A     82  41  23 NW23G32   29.95R
CROSBY           N/A     73  57  56 NW22G31   29.83R
WATFORD CITY     N/A    N/A N/A N/A MISG        N/A
BISMARCK       SUNNY     84  55  36 NW15G24   29.81S
GRAND FORKS    CLOUDY    73  68  84 NW3       29.73F
FARGO          CLOUDY    83  72  69 SW12      29.69S
BUFFALO SD       N/A     87  36  16 W22G37    29.89R
RAPID CITY     SUNNY     89  43  20 N17G25    29.94S
$$

REGIONAL REPORTS...WYOMING/IDAHO/WASHINGTON

CITY           SKY/WX    TMP DP  RH WIND       PRES   REMARKS
GILLETTE       SUNNY     85  39  19 N16       30.03F
SHERIDAN       SUNNY     87  32  14 N16       30.02F
BUFFALO WY     SUNNY     82  39  21 N13       30.09F
CODY           SUNNY     81  39  22 N13G18    30.07S
YELLOWSTONE LA   N/A     69  26  20 W9        30.31S
IDAHO FALLS    SUNNY     83  31  15 SW18G26   30.11F
SALMON         SUNNY     82  36  18 NW7       30.02F
BOISE          SUNNY     84  29  13 N16       30.08F
SPOKANE        MOSUNNY   76  40  27 VRB7      30.14F
$$

REGIONAL REPORTS...ALBERTA

CITY           SKY/WX    TMP DP  RH WIND       PRES   REMARKS
EDMONTON       PTSUNNY   70  52  52 NW9       29.92S
CALGARY        PTSUNNY   73  54  49 E10       29.97R
LETHBRIDGE     MOSUNNY   79  46  31 W17G32    29.97F
MEDICINE HAT   PTSUNNY   79  48  34 W5        29.95F
WATERTON GATE    N/A     72  45  37 SW17G29     N/A
MILK RIVER       N/A     79  43  27 W13G21      N/A
$$

REGIONAL REPORTS...SASKATCHEWAN

CITY           SKY/WX    TMP DP  RH WIND       PRES   REMARKS
SWIFT CURRENT  MOSUNNY   70  55  60 NW20G29   29.92S
REGINA         MOSUNNY   68  61  77 NW15      29.79R
SASKATOON      MOSUNNY   75  54  46 NW24      29.80R
CYPRESS HILLS    N/A     68  48  49 NW8         N/A
VAL MARIE        N/A     73  48  40 NW15G23     N/A
ROCKGLEN         N/A     70  50  49 NW20G29     N/A
ASSINIBOIA       N/A     70  54  56 W9          N/A
$$




USA.gov is the U.S. government's official web portal to all federal, state and local government web resources and services.